Location: Newark
(51.3318°N, 0.0053°E)
Time: 08:21:29
(UTC+00:00)

ONEWEB-0421 - Pass Details

Date: 07 June 2024
Orbit: 1188 x 1191 km, 87.9° (Epoch: 16 June)

Event Time Altitude Azimuth Distance (km) Brightness Sun altitude
Rises 00:15:38 0° 5° (N) 4,098 ? -15.8°
Reaches altitude 10° 00:20:37 10° 35° (NE) 3,129 ? -15.7°
Maximum altitude 00:23:16 12° 57° (ENE) 2,967 ? -15.7°
Drops below altitude 10° 00:25:55 10° 79° (E) 3,123 ? -15.6°
Sets 00:30:50 0° 108° (ESE) 4,080 ? -15.6°
